CZ-6A DEB, 61133

Orbit data source: Space-Track

CZ-6A DEB, 61133 is space debris in LEO originally from a launch on Tue, 06 Aug 2024 UTC launched from the Taiyaun Space Center, China (TSC). Debris objects in space refer to the collection of defunct objects orbiting the Earth. Examples of debris include non-operational satellites, rocket bodies, and fragments generated from explosions, collisions, or faulty payload assembly.

Loading next visibility...
Identifier
61133, 2024-140QB
Orbit
LEO
Country
Flag of CNCN / PRC
Related business
Manufacturer
SAST
Mission
Spacecraft
Bus & Motor
Unknown
Mass
Unknown
Launch date (UTC)
2024-08-06 (2 years ago)
Launch vehicle
Unknown
Launch site
Taiyaun Space Center, China (TSC)
Object type
Payload
Rocket body
Debris
Shape & HBR
Unknown shape, 0.1 m
Radar Cross Section
Medium (>0.1 m² and <1 m²)

Expand to show TLE details & history
Last TLE update: 14 hours ago

TLE from 14 hours ago
0 CZ-6A DEB
1 61133U 24140QB  26171.28695177  .00001929  00000-0  41462-3 0  9998
2 61133  88.9502 265.7169 0075644 232.1737 127.2611 14.56413493 96864
Epoch: 2026-06-20T06:53Z
TLE epoch observation values (Epoch: 2026-06-20T06:53:12.632Z)
Latitude
-0.00007°
Longitude
-106.08948°
Altitude
740.584 km
Speed
7.467 km/s
True Right ascension
17h 42m 52s
True Declination
0° 00' 00"
Sunlit
Object was in full shadow at epoch
Visualization orbit readout
Latitude
Unknown
Longitude
Unknown
Altitude
Unknown
Speed
Unknown
Apparent Right ascension
Unknown
Apparent Declination
Unknown
Sunlit
N/A
Visualization observer readout
Local Sidereal Time
07:24:25
Azimuth
Unknown
Elevation
Unknown
Doppler factor
Unknown
Orbital elements
Apogee altitude
755.232 km
Perigee altitude
648.123 km
Semi-major axis
7,079.814 km
Eccentricity
0.00756
Inclination
88.9502°
RAAN
265.7169°
Arg. of periapsis
232.1737°
True anomaly
127.94704°
Mean anomaly
127.2611°
Eccentric anomaly
127.60446°
Mean motion
3.64343 °/min
Orbital period
98.81 mins
BSTAR
0.00041462
Loading maneuver chart data...
Computing Atmospheric mass density...
Loading historical data...
Loading historical data...
Loading historical data...
Loading historical data...
Loading historical data...
Loading historical data...
Loading historical data...

Documentation

Showing up to 5 results
|